Temp
9 10 10 10 11 11 11 11 10 10 10 10 9 9 10 11 11 12 11 12 13 12 13 13 14 14 14 12 12 11 10 9 12 12 14 13 13 14 14 15 15 16 16 16 17
9 10 10 10 11 11 11 11 10 10 9 9 9 9 10 11 12 11 12 12 12 12 13 13 12 13 10 12 11 10 9 10 12 12 13 12 13 13 14 13 13 14 15 16 16
9 10 10 10 11 12 11 10 10 9 9 9 10 10 10 11 10 11 12 12 12 12 13 13 13 12 11 12 11 10 9 10 12 13 13 12 12 13 13 12 12 13 14 14 15
9 9 10 10 10 11 10 10 10 9 9 9 10 10 11 11 10 11 12 12 12 13 13 12 11 11 10 11 11 11 10 11 12 12 11 11 12 12 11 13 14 12 13 13 12
9 9 9 9 10 10 10 9 9 9 9 9 10 11 11 9 10 11 12 12 12 13 12 11 10 11 10 10 10 10 10 10 10 10 10 10 10 11 11 12 12 12 12 11 11
8 8 10 10 10 10 10 10 10 9 9 10 11 11 11 8 10 11 12 12 12 12 11 11 11 11 10 10 10 9 9 9 9 10 10 10 11 10 11 12 11 11 11 11 11
8 9 10 10 10 11 10 10 9 10 10 11 11 11 9 9 11 11 11 11 11 12 11 11 11 10 10 9 9 9 8 8 9 9 10 10 10 9 12 12 12 12 12 12 12
8 9 9 9 9 10 9 10 10 10 10 11 11 11 9 10 11 11 11 11 11 11 11 11 11 10 10 9 8 8 8 7 9 9 11 11 10 12 10 12 10 10 9 10 10
10 9 9 9 9 9 9 10 10 10 10 11 11 10 9 11 11 11 11 11 11 11 11 11 10 8 8 7 5 5 5 6 7 8 9 9 8 10 10 10 11 11 11 11 11
9 9 9 9 9 9 9 10 10 11 11 11 11 9 9 9 11 11 11 11 11 11 9 8 6 6 5 3 3 4 6 6 6 7 8 7 8 10 10 9 10 10 10 10 11
8 8 9 8 9 9 10 11 8 7 9 8 9 8 10 11 11 11 11 11 10 8 6 7 5 4 5 7 7 6 2 3 6 7 6 6 7 9 10 10 10 10 10 10 10
8 9 9 9 10 10 10 6 6 7 8 9 10 10 11 11 10 10 11 9 9 7 7 5 5 6 8 7 6 6 5 6 6 7 6 7 7 9 9 9 9 10 10 10 10
9 9 10 10 10 10 8 6 7 8 6 9 10 10 10 10 10 10 10 9 8 7 7 5 8 8 8 7 6 6 5 5 5 6 7 6 7 9 10 9 9 9 8 9 9
9 9 10 10 10 8 8 8 9 9 3 8 9 10 10 10 9 11 10 9 8 8 7 5 7 8 8 7 7 2 7 7 7 7 6 7 7 8 9 8 8 8 7 8 9
10 10 10 10 9 7 8 9 9 9 4 9 9 11 10 9 10 10 10 9 8 8 6 7 8 8 7 8 7 6 7 7 6 7 6 5 6 7 8 9 9 9 10 10 9
9 9 9 9 9 8 9 10 9 4 3 6 9 9 9 9 9 7 8 9 8 7 6 6 7 8 7 8 8 8 6 3 1 5 4 5 3 6 8 8 10 10 9 10 9
9 9 9 9 8 9 9 8 4 3 8 6 7 8 7 8 8 6 6 6 5 4 2 5 7 8 8 7 7 6 2 2 3 0 5 2 3 7 9 10 10 8 8 9 9
9 9 9 9 9 9 9 4 3 8 8 8 7 7 7 6 6 5 6 4 6 3 2 4 8 5 8 8 6 6 4 4 5 3 3 3 6 8 10 11 10 9 8 8 8
9 9 9 8 8 9 5 2 5 7 9 7 7 3 6 7 5 2 1 3 5 5 4 5 6 8 8 9 7 7 4 6 5 2 3 2 5 9 12 9 8 8 8 8 8
9 8 9 8 8 8 4 7 7 8 8 8 6 7 2 4 3 2 -0 6 7 7 6 5 5 7 9 8 7 8 8 8 5 6 7 7 7 10 9 8 7 7 7 10 10
9 5 9 9 8 4 3 5 9 10 10 10 8 9 8 6 4 1 2 5 6 7 6 6 5 7 7 7 7 8 9 9 8 7 10 11 10 9 7 6 6 7 8 10 10
6 4 9 9 5 2 3 9 10 10 10 10 10 9 9 8 4 1 3 3 7 8 7 6 7 6 7 9 8 8 9 9 10 10 9 9 10 9 6 6 7 6 8 10 10
4 4 9 9 3 4 8 9 10 10 10 10 10 10 10 9 8 7 6 7 6 7 7 6 4 6 8 10 9 9 8 9 9 9 10 10 11 11 8 6 7 6 8 9 9
3 3 4 3 2 7 9 9 9 10 10 10 10 10 9 9 8 8 9 8 6 7 9 7 5 7 7 8 8 9 9 10 9 9 10 10 10 9 7 6 5 5 8 8 8
2 3 4 3 5 6 7 8 9 9 9 9 9 9 9 8 8 8 8 7 8 9 7 6 5 5 7 7 8 8 8 10 8 9 9 10 9 9 7 6 5 5 8 8 7
4 4 2 3 4 7 6 9 9 9 9 9 9 9 8 8 8 8 8 7 7 7 3 4 6 6 6 9 9 9 9 9 9 10 10 10 10 10 10 8 7 6 6 7 7
4 4 4 4 4 6 6 8 8 9 9 9 9 8 7 7 7 7 6 6 7 7 6 5 4 6 7 7 8 9 10 9 10 10 10 9 10 10 9 8 7 6 6 6 6
Height
771 772 772 771 773 769 775 780 784 789 789 791 796 798 799 801 799 798 800 804 803 802 800 800 800 801 801 805 807 811 827 835 821 822 812 811 812 807 806 805 803 799 800 800 799
773 772 773 770 772 771 775 780 786 790 791 792 795 800 799 802 801 800 806 805 805 803 803 803 803 804 810 811 814 818 832 826 817 815 814 813 813 812 811 809 807 802 797 798 798
773 771 770 769 768 772 777 782 787 790 792 794 795 801 799 803 804 808 807 807 805 805 805 805 805 807 812 812 815 821 827 820 814 812 812 812 811 809 809 808 805 804 798 796 797
774 772 770 769 769 773 778 784 789 791 793 794 794 800 800 803 813 810 809 808 807 807 806 807 808 812 817 816 817 819 818 817 815 814 814 812 807 806 804 797 796 797 795 794 794
774 772 769 770 769 778 782 787 791 793 795 797 797 801 802 806 813 812 810 808 807 807 808 809 813 814 817 819 817 818 818 817 816 816 813 810 809 805 790 793 794 793 791 790 788
776 774 770 773 776 780 786 789 793 796 797 798 800 802 802 812 813 812 811 810 810 809 809 810 814 814 816 817 819 820 819 818 815 811 810 807 798 800 783 786 788 787 786 784 783
776 774 772 776 781 785 789 791 794 794 798 798 801 805 807 816 814 814 812 811 812 812 812 813 813 815 818 819 819 817 820 818 812 812 808 804 791 789 776 779 780 780 778 777 774
779 776 780 784 786 788 792 792 793 798 801 801 806 806 817 816 816 815 813 812 814 814 815 815 815 817 819 819 821 822 824 827 814 813 806 806 775 775 779 778 779 780 778 774 770
781 783 785 788 792 794 796 793 800 803 805 807 809 810 820 817 817 817 815 814 815 816 816 815 816 823 823 831 840 841 846 835 826 815 813 811 789 779 778 779 775 771 766 762 758
789 791 792 795 796 797 798 803 807 807 808 809 811 815 818 821 820 818 816 816 817 817 819 820 826 833 837 848 865 855 840 836 834 822 814 815 792 763 777 780 769 760 754 752 749
797 798 799 800 803 806 806 806 809 813 813 822 823 823 822 822 821 820 818 818 818 821 831 829 840 846 838 834 833 837 858 847 825 819 821 812 790 763 768 767 758 749 748 744 740
803 803 804 806 806 807 807 812 821 824 826 823 822 822 822 822 822 821 820 822 822 829 828 839 842 829 827 830 834 834 839 830 822 813 818 802 780 758 757 753 748 742 738 737 734
809 808 809 810 810 810 812 818 822 823 830 827 826 824 825 824 824 823 821 822 825 829 831 842 828 825 827 830 832 829 835 832 830 816 809 805 780 754 746 746 743 740 739 735 730
814 814 813 813 815 817 819 821 822 823 853 837 829 828 826 823 826 823 822 826 827 830 831 839 829 824 826 826 827 853 816 818 819 819 820 804 791 759 746 749 743 743 739 731 724
816 816 816 815 818 819 822 822 822 823 875 836 831 827 825 828 829 825 825 826 830 830 839 831 826 824 825 818 819 823 814 817 819 814 815 811 808 765 750 741 740 733 723 719 714
819 818 817 818 819 823 822 822 823 856 884 850 834 832 831 829 831 831 830 829 830 833 835 834 826 823 821 815 814 811 819 831 841 822 829 813 825 776 756 747 726 720 717 711 704
822 820 820 819 822 821 822 823 856 875 847 852 845 838 842 838 835 840 839 841 847 855 865 838 823 819 817 818 817 820 843 855 840 862 819 829 827 769 750 741 736 728 717 706 698
826 824 823 822 821 821 821 840 874 848 846 843 846 843 845 846 845 847 841 855 844 854 866 854 829 829 816 817 824 826 834 847 840 850 836 819 800 764 743 732 731 724 712 702 689
828 828 826 824 821 820 827 866 857 848 838 845 845 864 849 843 850 856 867 856 846 845 856 848 839 817 816 813 820 819 836 821 829 845 838 824 788 750 736 734 726 719 709 695 684
829 830 828 825 823 823 837 843 841 837 838 839 853 850 876 860 862 864 875 845 838 838 842 851 846 821 814 814 817 814 811 813 827 818 804 780 783 747 742 736 728 718 706 687 678
829 834 828 826 825 831 853 847 833 829 830 835 840 838 841 848 857 872 869 849 841 839 841 846 849 829 820 819 820 811 802 803 806 805 784 763 759 757 756 749 738 722 703 686 677
830 844 829 827 840 852 853 835 829 829 829 830 832 833 835 837 858 871 862 856 838 837 840 842 838 840 821 806 810 811 804 799 790 788 785 781 762 753 758 751 737 726 705 688 674
837 837 829 827 856 853 836 834 834 833 832 831 829 829 830 834 841 842 844 833 836 837 837 841 851 843 817 807 808 803 802 798 794 788 785 779 763 749 753 748 735 731 712 697 684
839 851 839 836 846 842 840 838 835 833 833 832 830 829 830 832 837 834 831 829 832 832 828 835 844 836 835 817 816 809 798 793 795 795 786 779 770 759 761 757 745 733 720 709 699
842 852 850 857 847 847 847 843 838 835 832 834 832 832 833 835 833 835 833 833 829 826 833 837 841 837 825 815 813 809 800 794 801 793 789 780 772 769 771 769 757 747 725 717 708
844 846 850 852 851 845 847 840 839 838 839 835 836 834 835 836 832 831 832 836 834 830 843 841 836 832 821 804 805 800 793 792 788 786 784 780 773 767 764 766 760 753 741 728 724
842 844 846 851 852 850 850 843 841 839 835 835 837 839 839 837 832 829 829 830 830 830 835 837 842 833 824 810 806 800 784 786 780 781 781 782 770 769 766 767 766 761 752 746 739
Wind_Speed
7 5 7 2 1 7 16 13 13 9 8 7 5 4 6 5 10 12 10 5 7 6 3 4 8 6 7 4 4 2 3 3 3 5 3 3 6 5 5 4 4 3 1 4 4
8 7 5 5 1 2 5 15 12 9 7 8 8 5 8 8 19 16 9 8 8 7 7 7 4 5 4 3 3 3 3 7 3 2 3 2 1 3 4 5 5 6 6 8 6
11 10 7 6 3 2 3 17 12 8 8 10 10 6 7 6 4 6 10 8 8 6 7 5 5 3 3 2 1 2 4 3 2 4 3 5 7 4 4 7 7 7 7 5 8
10 12 8 9 8 6 19 18 11 11 10 10 11 8 8 1 4 8 10 9 8 7 7 7 5 3 3 2 3 1 3 2 3 5 5 5 3 6 10 15 5 9 10 8 9
12 12 7 8 19 16 13 14 11 9 10 8 11 9 4 6 4 8 8 9 11 10 12 4 5 2 3 1 2 3 2 4 5 7 7 7 9 10 17 8 8 11 11 11 11
13 12 6 10 30 22 17 16 14 13 11 10 10 5 5 7 4 6 8 10 12 12 11 8 2 1 3 1 1 2 3 7 6 7 5 10 15 5 4 5 10 11 14 13 14
13 12 11 28 26 23 20 21 16 13 11 15 17 20 13 4 4 5 7 12 11 9 5 8 5 5 1 3 3 4 5 6 3 4 4 6 13 13 14 11 14 15 15 16 17
11 13 26 23 22 22 20 18 14 14 13 11 7 9 4 5 7 8 7 9 9 8 7 6 6 4 2 2 6 5 3 4 4 6 4 4 24 10 6 7 9 7 8 12 13
21 26 25 25 23 22 19 22 19 17 11 6 5 6 2 4 5 7 9 5 6 7 7 4 4 3 5 3 4 6 3 3 7 4 3 1 19 4 4 11 17 18 20 17 19
23 23 24 23 23 25 25 23 17 12 7 7 8 5 5 2 3 5 7 5 5 3 4 6 5 3 3 4 2 3 5 4 6 5 8 14 30 30 14 11 20 22 22 21 21
27 23 21 21 23 21 17 7 6 7 14 4 1 4 1 1 3 6 5 3 3 6 4 4 4 2 5 3 3 4 3 7 13 12 7 11 25 32 19 17 22 23 20 20 22
21 21 22 19 15 12 12 6 4 1 5 7 4 3 3 3 4 5 3 3 3 2 2 5 3 6 3 3 4 4 6 12 11 7 4 14 26 30 24 15 15 19 19 18 18
18 21 20 14 9 18 21 10 7 2 5 4 2 2 3 4 2 4 2 1 2 1 1 4 4 2 1 4 4 5 6 6 9 7 8 12 12 5 5 4 6 8 9 12 13
14 11 10 7 5 5 5 8 6 3 4 6 5 4 3 3 4 3 2 2 2 2 2 4 4 1 2 5 5 3 6 9 5 7 5 7 8 5 4 8 6 8 8 11 16
10 6 3 4 4 4 3 5 5 2 5 5 5 2 3 3 3 2 3 3 2 3 5 4 2 2 4 5 5 8 3 6 4 9 5 2 4 9 3 7 8 15 18 18 15
9 4 8 10 11 5 3 2 2 6 2 5 4 4 4 4 4 7 5 4 1 2 1 6 4 3 4 3 5 7 4 4 3 0 3 4 5 7 4 6 20 24 22 21 18
11 10 5 6 3 7 2 3 5 6 3 6 3 4 1 4 4 6 4 5 3 5 6 6 3 3 2 5 3 7 5 4 5 3 4 2 1 12 13 10 20 24 23 21 17
6 9 11 8 5 6 4 5 8 3 1 3 4 4 3 5 2 5 2 4 4 3 2 5 6 1 1 3 3 2 4 3 5 2 5 2 5 6 5 20 21 21 20 19 15
3 3 4 10 6 0 5 5 6 4 2 2 2 6 4 2 1 6 2 1 3 2 3 4 5 4 4 2 3 2 0 3 3 2 2 3 7 7 13 23 25 23 22 21 12
1 2 5 14 3 1 4 4 3 3 3 2 3 3 2 4 6 5 3 2 2 1 2 3 5 3 5 1 5 4 2 2 1 4 5 5 4 7 25 28 27 26 22 19 14
3 3 5 9 2 5 3 4 3 4 3 2 3 3 3 2 2 1 2 5 3 0 1 3 2 6 2 2 3 3 3 3 3 3 2 5 5 10 21 21 20 23 23 19 16
3 3 7 5 4 1 1 1 1 1 1 2 1 2 3 4 2 2 4 6 5 2 1 4 2 5 7 2 2 4 3 3 3 4 3 3 5 13 21 19 19 22 22 19 16
2 2 3 2 3 2 1 2 2 2 0 1 2 1 1 3 2 5 5 5 7 5 4 4 2 4 6 3 1 3 4 2 6 3 2 4 6 12 20 25 25 21 22 18 19
3 3 4 4 1 3 3 2 2 2 3 2 2 1 1 2 3 3 3 3 6 4 5 4 2 5 4 6 0 7 10 6 3 2 6 4 15 15 19 23 26 27 21 18 19
3 0 2 2 4 3 3 3 2 3 0 2 2 1 2 2 2 3 2 5 1 3 3 3 4 4 8 15 9 12 15 8 2 4 2 8 12 10 12 17 19 19 24 22 22
2 2 2 1 1 2 3 2 2 3 2 2 2 2 2 4 5 4 3 3 4 1 2 1 3 3 5 4 4 8 10 6 8 4 6 7 10 8 9 13 17 19 22 24 23
2 2 3 1 1 2 2 2 3 2 2 3 2 2 5 7 5 7 6 4 4 1 1 3 0 4 5 5 9 4 5 5 3 3 3 3 4 8 11 11 15 17 18 19 20
Wind_Direction
16 33 20 34 138 28 160 155 151 151 140 143 143 118 133 97 89 80 53 52 34 21 31 77 74 60 60 56 45 117 69 179 225 169 254 13 29 330 315 293 341 326 113 167 148
15 32 30 7 269 140 130 152 145 147 136 135 135 138 130 112 85 59 23 45 26 19 59 77 43 54 45 51 20 92 143 205 215 227 293 280 228 344 322 292 290 300 268 214 227
16 26 25 29 223 275 325 141 133 138 127 135 136 154 139 141 65 357 18 28 25 43 64 77 85 76 72 58 40 118 187 218 276 261 311 300 306 219 236 255 205 240 268 274 258
25 26 31 40 84 95 113 114 122 123 122 123 124 139 117 316 83 347 43 31 40 57 85 52 37 62 94 128 4 283 216 231 282 340 322 290 268 263 229 248 224 236 254 271 263
22 22 19 25 126 137 135 113 121 121 118 113 120 122 90 54 58 24 34 42 53 66 59 64 48 72 99 26 336 185 286 310 291 283 259 261 255 254 259 261 247 252 249 247 258
11 16 5 131 120 120 125 119 123 118 116 107 113 81 88 83 -0 37 45 51 48 64 55 51 89 134 95 82 124 315 273 279 273 259 252 265 268 229 158 194 226 237 244 248 248
6 22 95 133 127 114 118 122 121 114 114 104 97 90 61 89 55 40 47 48 41 50 62 45 30 53 35 355 341 305 310 322 286 353 289 325 275 236 268 253 253 247 249 250 250
29 77 115 115 113 115 121 113 107 113 113 91 82 68 69 29 46 52 46 60 55 63 73 56 43 94 51 320 4 351 50 357 317 350 310 71 276 282 324 252 278 277 270 269 258
101 78 93 109 111 113 109 100 102 103 92 75 51 93 55 29 36 21 29 43 42 41 50 56 53 68 26 53 3 11 293 311 320 337 292 203 282 132 310 307 287 283 272 261 261
83 82 89 97 102 103 101 105 93 74 46 67 39 56 4 351 354 16 38 45 46 16 24 35 46 54 40 58 255 295 313 274 262 292 297 283 276 279 281 266 267 265 263 264 262
77 81 88 91 104 97 105 103 27 14 35 77 298 103 71 352 29 30 23 26 43 48 30 2 43 248 238 212 246 269 212 262 275 275 286 261 272 285 294 273 268 268 267 267 266
89 92 91 92 83 31 53 67 44 58 59 29 46 52 55 13 30 358 17 59 47 16 26 12 279 252 215 242 245 260 291 287 291 270 230 279 277 283 285 268 262 267 274 267 266
95 108 100 87 68 66 70 55 33 83 85 350 355 31 336 14 18 345 43 22 50 353 198 178 248 7 262 285 272 248 230 255 254 321 248 289 280 285 269 250 287 280 272 283 270
91 117 115 66 58 49 53 26 26 40 82 331 352 358 6 331 9 5 41 71 3 299 312 233 287 260 309 266 184 280 223 245 264 326 310 54 295 242 280 293 256 282 273 274 280
83 101 186 344 88 56 345 6 350 88 57 307 331 302 329 59 310 351 356 44 248 265 79 272 317 295 268 236 157 243 214 250 264 274 312 315 243 281 312 323 318 303 309 297 273
54 124 103 86 75 43 4 0 11 43 298 341 327 357 22 12 12 327 9 32 289 301 235 248 258 240 235 290 229 296 341 31 32 28 264 219 159 275 297 299 319 322 313 300 295
50 66 101 93 90 29 41 41 39 89 3 318 338 9 49 329 338 29 -0 9 43 22 6 325 292 278 255 322 19 38 37 341 342 6 234 284 58 259 297 308 324 312 305 303 291
61 79 71 50 14 22 77 53 71 230 243 261 6 348 10 358 23 333 28 25 51 81 61 25 342 284 193 178 250 320 137 152 269 297 290 357 238 259 260 331 325 315 312 309 281
171 7 18 353 336 148 79 56 184 203 177 113 20 47 328 355 354 20 35 285 256 147 106 6 278 302 203 218 133 303 244 187 250 152 325 244 283 286 328 328 331 329 326 316 287
172 354 356 351 18 55 75 143 176 200 148 117 123 148 230 297 23 37 7 265 318 195 139 213 294 252 294 120 203 232 336 266 313 315 310 275 262 304 338 335 331 332 323 318 312
101 45 347 353 355 45 116 195 169 183 167 140 196 171 215 278 155 24 276 296 263 57 167 140 139 289 295 194 214 319 297 244 227 204 292 311 295 2 336 329 325 330 328 326 312
90 36 348 4 42 25 95 221 266 151 88 129 171 245 211 184 218 175 216 218 203 176 221 205 272 278 251 240 207 203 268 290 291 313 261 247 284 15 342 337 340 341 340 344 348
75 245 350 23 97 345 313 24 345 343 336 129 173 167 272 256 286 197 193 223 202 194 190 177 254 316 348 14 108 287 272 244 298 278 265 314 300 342 342 349 347 351 350 358 16
71 28 337 45 147 99 23 346 339 342 303 312 255 125 26 283 243 291 244 202 185 204 201 152 222 207 211 237 120 298 292 311 314 310 308 302 309 330 340 347 343 344 358 6 19
39 238 187 323 357 48 34 332 310 307 0 10 305 166 210 276 285 246 298 319 224 189 126 150 249 204 251 261 270 263 268 283 256 257 309 298 316 328 335 348 342 342 357 14 17
102 110 23 108 316 24 357 253 250 304 256 281 243 310 265 242 212 259 167 216 252 338 125 141 269 332 289 272 191 272 266 244 263 250 269 290 301 349 340 358 356 359 359 8 14
83 115 106 321 57 75 233 286 298 1 251 242 293 328 290 265 268 252 217 212 206 304 263 159 290 348 273 306 308 303 242 205 253 193 218 274 273 330 333 8 3 1 5 6 8